Location: Bad Rothenbrunn
(47.2167°N, 11.2167°E)
Time: 12:01:16
(UTC+00:00)

Cosmos 1461 - Pass Details

Date: 03 March 2021
Orbit: 505 x 658 km, 65.0° (Epoch: 23 April)

Event Time Altitude Azimuth Distance (km) Brightness Sun altitude
Rises 17:28:36 0° 217° (SW) 2,955 7.2 -5.1°
Reaches altitude 10° 17:30:53 10° 218° (SW) 2,059 6.4 -5.5°
Maximum altitude 17:35:35 84° 306° (NW) 668 3.3 -6.3°
Drops below altitude 10° 17:40:21 10° 36° (NE) 2,076 5.4 -7.1°
Sets 17:42:39 0° 37° (NE) 2,983 6.2 -7.5°
